Погода в Лоэне

Норвегия     61°52′12″N   6°51′34″E
темп.,
°C
ветер,
м/с
пор.,
м/с
влажн.,
%
обл.,
%
осадки,
мм/ч
давл.,
гПа
погр.,
м
30 июня, чт
чт3023:00+11с22887 0.0 101820
02:00+10св118946 0.0 101810
05:00+10ю01829 0.0 101710
08:00+15ю11595 0.0 1017256
11:00+18ююв124735 0.0 10161241
14:00+20ю12395 0.0 10151798
17:00+21ю22365 0.0 10141831
20:00+20с12423 0.0 10141116
1 июля, пт
пт123:00+14ссв22800 0.0 101511
02:00+12всв11795 0.0 101511
05:00+13вюв22653 0.0 101411
08:00+17юв12515 0.0 1013237
11:00+20вюв22434 0.0 10121325
14:00+22ю33395 0.0 10111897
17:00+22ююв133710 0.0 10092038
20:00+21юв2348100 0.0 1008711
2 июля, сб
сб223:00+16юв117180 0.1 100811
02:00+13ююз338599 0.7 100959
05:00+11з3395100 1.1 1010251
08:00+8зюз2292100 6.1 1012262
11:00+8ююз1287100 4.9 1013287
14:00+10ююв1270100 6.9 1012631
17:00+10ююз2374100 0.3 1012556
20:00+10ю348267 1.3 1012240
3 июля, вс
вс323:00+8ююв349070 0.6 101352
02:00+8ююв338698 0.8 101169
05:00+8ю2388100 0.3 101077
08:00+8ю2388100 0.9 1010202
11:00+7ю3491100 6.8 1011457
14:00+9ююз4577100 7.9 10111027
17:00+8ююз4586100 0.4 1012584
20:00+8юз238495 2.1 1013387
4 июля, пн
пн423:00+6ююз228882 0.1 101432
02:00+5ю228965 0.1 101418
05:00+5ю229080 0.0 101323
08:00+7юз1179100 0.0 1011366
11:00+9з1169100 0.3 1010854
14:00+10зсз226499 1.1 10081004
17:00+10зсз226979 1.8 1008789
20:00+9зсз228095 4.3 1008275